Weather observations for the past three days for
La Paz International Airport
Metric (Imperial)
Date Time (mst) Wind (kph) Vis. (km) Weather Sky Cond. Temperature (ºC) Relative Humidity Wind Chill (°C) Heat Index (°C) Pressure Precipitation (cm)
Air Dwpt 6 hour altimeter (cm) sea level (mb) 1 hr 3 hr 6 hr
Max. Min.
08 16:40 NW 15 16.09 Partly Cloudy SCT200 32 10 26% 30 75.77 1009.9
08 15:40 N 13 16.09 A Few Clouds FEW200 33 11 26% 31 75.79 0.0
08 14:40 N 15 16.09 A Few Clouds FEW200 34 9 21% 32 75.84 0.0
08 13:40 N 24 16.09 A Few Clouds FEW200 33 10 24% 31 75.92 1011.8
08 12:40 N 19 16.09 A Few Clouds FEW200 32 12 29% 31 76 0.0
08 11:48 N 19 16.09 A Few Clouds FEW200 30 16 43% 30 76.02 0.0
08 10:41 N 15 16.09 A Few Clouds FEW200 30 15 40% 30 76.05 1013.6
08 09:40 NW 11 16.09 Clear SKC 29 13 37% 28 76.07 0.0
08 08:40 NW 9 16.09 Clear SKC 28 13 40% 28 76.07 0.0
08 07:44 S 6 16.09 Clear SKC 23 15 61% 76.07 1013.8
08 06:40 S 9 16.09 Clear SKC 18 12 68% 76.07 0.0
08 06:00 SE 7 16.09 Clear SKC 15 10 72% 76.05 0.0
07 22:40 S 9 12.87 Clear SKC 21 13 60% 76.12 1014.5
07 21:40 SE 4 12.87 Clear SKC 22 15 65% 76.12 0.0
07 20:40 N 7 12.87 Clear SKC 24 17 65% 25 76.1 0.0
07 19:40 NW 7 12.87 Clear SKC 25 17 61% 26 76.05 1013.5
07 18:40 NW 13 16.09 Clear SKC 26 17 58% 27 76 0.0
07 17:40 NW 22 16.09 Clear SKC 27 17 54% 28 75.95 0.0
07 16:40 N 19 16.09 A Few Clouds FEW200 29 16 45% 29 75.92 1011.8
07 15:51 NW 17 16.09 A Few Clouds FEW200 30 15 40% 30 75.92 0.0
07 14:43 N 15 16.09 A Few Clouds FEW200 29 17 48% 29 75.97 0.0
07 13:40 N 17 16.09 A Few Clouds FEW200 29 17 48% 29 76.02 1013.0
07 12:43 N 19 16.09 A Few Clouds FEW200 28 17 51% 29 76.1 0.0
07 11:42 NW 20 16.09 A Few Clouds FEW200 27 16 51% 27 76.15 0.0
07 10:43 NW 9 16.09 A Few Clouds FEW200 27 16 51% 27 76.17 1014.9
07 09:46 N 13 16.09 A Few Clouds FEW080 26 16 54% 27 76.17 0.0
07 08:41 N 13 16.09 A Few Clouds FEW080 25 14 51% 26 76.17 0.0
07 07:51 S 7 16.09 A Few Clouds FEW080 22 12 53% 76.17 1014.9
07 06:48 S 11 16.09 A Few Clouds FEW080 17 12 73% 76.12 0.0
07 06:00 S 9 16.09 A Few Clouds FEW080 17 11 68% 76.1 0.0
06 22:40 S 11 12.87 Clear SKC 22 10 47% 76.15 1014.8
06 21:40 S 11 12.87 Clear SKC 23 12 50% 76.15 0.0
06 20:40 SW 4 12.87 Clear SKC 25 19 69% 26 76.12 0.0
06 19:40 NW 9 12.87 A Few Clouds FEW120 25 20 74% 26 76.07 1013.7
06 18:40 NW 11 16.09 A Few Clouds FEW120 26 19 65% 27 76.02 0.0
06 17:40 NW 19 16.09 A Few Clouds FEW120 28 18 55% 29 76 0.0
06 16:40 N 17 16.09 A Few Clouds FEW120 30 19 52% 31 75.97 1012.5
06 15:49 N 17 16.09 A Few Clouds FEW120 31 13 33% 30 76 0.0
06 14:40 N 20 16.09 A Few Clouds FEW120 32 15 36% 32 76.02 0.0
06 13:41 NW 15 16.09 A Few Clouds FEW120 31 14 35% 30 76.1 1013.8
06 12:40 NW 19 16.09 A Few Clouds FEW120 29 19 55% 30 76.15 0.0
06 11:40 N 19 16.09 A Few Clouds FEW120 29 20 58% 31 76.2 0.0
06 10:40 NW 22 16.09 A Few Clouds FEW120 28 19 58% 29 76.2 1015.6
06 09:40 N 15 16.09 A Few Clouds FEW120 27 19 62% 28 76.2 0.0
06 08:40 NW 13 16.09 Partly Cloudy SCT120 26 16 54% 27 76.2 0.0
06 07:40 Calm 16.09 A Few Clouds FEW120 25 13 47% 26 76.17 1015.1
06 06:40 S 7 16.09 Partly Cloudy SCT120 20 13 64% 76.15 0.0
06 05:46 S 11 16.09 Partly Cloudy SCT120 19 13 68% 76.1 0.0
05 22:40 S 7 12.87 A Few Clouds FEW200 23 19 78% 76.07 1013.8
05 21:40 Calm 12.87 A Few Clouds FEW200 24 19 74% 25 76.05 0.0
05 20:46 NW 7 12.87 Partly Cloudy SCT200 25 20 74% 26 76.02 0.0
05 19:40 N 11 12.87 Mostly Cloudy BKN200 26 20 70% 27 76 1012.7
05 18:40 N 15 16.09 Mostly Cloudy BKN200 28 18 55% 29 75.97 0.0
Date Time (mst) Wind (kph) Vis. (km) Weather Sky Cond. Air Dwpt Max. Min. Relative Humidity Wind Chill (°C) Heat Index (°C) altimeter (cm) sea level (mb) 1 hr 3 hr 6 hr
6 hour
Temperature (ºC) Pressure Precipitation (cm)